[[{"header":{"parameterUnit":"m.s-1","parameterCategory":1,"la1":30.2991,"la2":30.254,"lo1":-89.0895,"lo2":-89.0444,"dy":0.0017,"dx":0.0017,"nx":28,"ny":28,"refTime":"2025-06-17T03:00:00:Z","depth":0,"parameterNumber":2,"parameterNumberName":"U-component_of_WINDS"},"data":[0,0,0,0,0,0,0,0,0,0,0,0,0,0,0,0,0,0,0,0,0,0,0,0,0,0,0,0,0,0,0,0,0,0,0,0,0,0,0,0,0,0,0,0,0,0,0,0,0,0,0,0,0,0,0,0,0,0,0.5532,0.5531,0,0.5446,0.5445,0.5444,0.5387,0.5386,0.5386,0.5385,0.5294,0.5292,0.529,0,0,0,0,0,0,0,0,0,0,0,0,0,0.5643,0.5641,0.5532,0.5531,0.553,0.5446,0.5445,0.5444,0.5387,0.5386,0.5386,0.5385,0.5294,0.5292,0.529,0,0,0,0,0,0,0,0,0,0,0,0,0,0.5579,0.564,0.5532,0.5491,0.5487,0.5446,0.5445,0.5444,0.5387,0.5386,0.5386,0.5385,0.5295,0.5292,0.5289,0.5281,0,0,0.528,0.5278,0,0,0,0,0,0,0,0,0.5583,0.5575,0.5499,0.5494,0.5489,0.5427,0.545,0.5389,0.5387,0.5425,0.5385,0.5385,0.5338,0.5332,0.5317,0.5277,0.5273,0.5279,0.5277,0.5276,0.5275,0,0,0,0,0,0,0,0.5587,0.5579,0.5498,0.5497,0.5492,0.5476,0.5466,0.5438,0.5386,0.5421,0.5417,0.5408,0.5335,0.532,0.5314,0.5272,0.5279,0.5277,0.5275,0.5274,0.5219,0.522,0,0,0,0,0,0,0.5599,0.5583,0.5501,0.5495,0.5536,0.5474,0.5464,0.5447,0.5386,0.5376,0.5408,0.5405,0.5325,0.5318,0.5311,0.5296,0.5276,0.5273,0.5271,0.5219,0.5219,0.522,0,0,0,0,0,0,0.5601,0.5592,0.5504,0.5538,0.5525,0.5473,0.5455,0.5446,0.543,0.5376,0.5366,0.5402,0.5325,0.5315,0.5289,0.5292,0.5272,0.5269,0.5218,0.5219,0.522,0.5267,0,0,0,0,0,0,0.5605,0.5593,0.5591,0.5538,0.5524,0.5485,0.5455,0.5444,0.5425,0.542,0.5368,0.5358,0.5323,0.5294,0.5286,0.5287,0.5267,0.5218,0.5219,0.5219,0.5265,0.5269,0.5273,0,0,0,0,0,0.5609,0.5608,0.5591,0.5582,0.552,0.5486,0.5477,0.5438,0.5426,0.5422,0.5387,0.536,0.5293,0.5292,0.5282,0.5282,0.5217,0.5218,0.5219,0.5263,0.5269,0.5273,0,0,0,0,0,0,0.5661,0.56,0.5581,0.5563,0.553,0.5476,0.547,0.5445,0.5415,0.5411,0.5363,0.5352,0.533,0.5304,0.5303,0.5271,0.5252,0.5251,0.5289,0.5293,0.5297,0.5303,0.5264,0,0,0,0,0,0.5671,0.5649,0.5596,0.5585,0.557,0.5523,0.5507,0.548,0.5443,0.5429,0.5392,0.5356,0.5327,0.5309,0.5279,0.5261,0.5248,0.5257,0.5261,0.5264,0.5264,0.525,0.5253,0.5223,0.5223,0.5223,0,0,0.5689,0.5653,0.5643,0.5595,0.5566,0.5543,0.5512,0.5489,0.5471,0.5425,0.5398,0.537,0.5327,0.5304,0.5293,0.5282,0.5269,0.5266,0.5269,0.5266,0.5251,0.5254,0.5257,0.5224,0.5224,0.5224,0,0,0.5712,0.5684,0.567,0.5642,0.56,0.5569,0.5566,0.5515,0.5495,0.5467,0.5431,0.5409,0.536,0.533,0.5309,0.5319,0.5292,0.5311,0.5331,0.5319,0.5321,0.5323,0.5325,0.5326,0.5311,0.5311,0.5311,0,0.5741,0.5706,0.5666,0.5646,0.5625,0.5583,0.5568,0.5542,0.5492,0.5477,0.5466,0.5403,0.5371,0.534,0.5343,0.5328,0.5321,0.5316,0.5324,0.5326,0.5327,0.5328,0.5329,0.5313,0.5313,0.5313,0.5313,0,0.5742,0.5719,0.5713,0.5666,0.5645,0.5627,0.5583,0.5566,0.554,0.551,0.5481,0.5442,0.5402,0.5393,0.5368,0.5358,0.5352,0.5334,0.5313,0.5333,0.5333,0.5333,0.5317,0.5316,0.5315,0.5315,0,0,0.5795,0.5726,0.5724,0.5702,0.5651,0.5632,0.5611,0.5574,0.5559,0.5526,0.5506,0.5465,0.5447,0.5423,0.5394,0.5383,0.5391,0.5365,0.5363,0.537,0.5376,0.5389,0.5391,0.5374,0.5374,0.5374,0.5379,0,0.5808,0.5771,0.5734,0.5709,0.5686,0.5645,0.5627,0.5593,0.5564,0.5539,0.5506,0.5477,0.5457,0.5441,0.5429,0.5393,0.5392,0.5392,0.5353,0.5352,0.5364,0.5391,0.5405,0.5412,0.5379,0.5379,0.5379,0,0.5819,0.5788,0.5761,0.5712,0.57,0.5685,0.5647,0.5624,0.5584,0.5564,0.5536,0.5506,0.548,0.5464,0.5427,0.5429,0.541,0.539,0.5389,0.5383,0.5366,0.5383,0.5413,0.5414,0.5379,0.5379,0.5379,0,0.5858,0.5809,0.5786,0.5768,0.5711,0.5701,0.5676,0.5636,0.5615,0.5581,0.5567,0.5531,0.551,0.5482,0.5441,0.5434,0.5408,0.5389,0.5388,0.5389,0.5384,0.5384,0.5409,0.5375,0.5375,0.5375,0.5375,0,0.5875,0.586,0.5803,0.5788,0.5769,0.5726,0.5708,0.568,0.5644,0.5622,0.5585,0.5565,0.5513,0.5487,0.5455,0.5428,0.5419,0.54,0.5392,0.5403,0.5405,0.5389,0.5387,0.5375,0.5375,0.5375,0.5375,0,0.5915,0.5876,0.5848,0.5796,0.5782,0.577,0.5725,0.5708,0.5677,0.565,0.5641,0.5592,0.5558,0.5515,0.5468,0.5447,0.5423,0.541,0.5436,0.5431,0.5432,0.5432,0.5446,0.5445,0.5414,0.5414,0.5415,0,0.5928,0.5915,0.5862,0.5845,0.5822,0.5795,0.5774,0.5731,0.5711,0.5664,0.5652,0.5617,0.5585,0.5533,0.5492,0.5455,0.5441,0.5448,0.5435,0.5446,0.5438,0.5439,0.5437,0.5451,0.5452,0.5452,0.5453,0,0.5955,0.5936,0.5908,0.5873,0.5849,0.5819,0.5787,0.5775,0.5725,0.5703,0.5669,0.5645,0.5597,0.556,0.5518,0.5491,0.5462,0.5457,0.5455,0.5465,0.548,0.547,0.5444,0.5457,0.5456,0.5456,0.5456,0.5456,0.598,0.5966,0.5926,0.5896,0.5867,0.5838,0.582,0.5787,0.5758,0.5716,0.5692,0.5659,0.5617,0.5558,0.5531,0.5503,0.5493,0.549,0.5488,0.5488,0.5491,0.5486,0.5495,0.5495,0.5495,0.5495,0.5495,0,0.6003,0.5976,0.5948,0.5905,0.588,0.5858,0.5821,0.5801,0.5773,0.5737,0.5707,0.5667,0.5632,0.5588,0.5549,0.5535,0.5521,0.5526,0.5525,0.5519,0.5503,0.5508,0.5538,0.5538,0.5538,0.5538,0.5538,0.5538,0.6013,0.5988,0.5964,0.5924,0.5896,0.5863,0.5844,0.5816,0.5788,0.5745,0.5716,0.5688,0.5648,0.5606,0.5572,0.556,0.5546,0.5555,0.5539,0.5524,0.5521,0.5517,0.5521,0.5553,0.5553,0.5557,0.5557,0.5557]},{"header":{"parameterUnit":"m.s-1","parameterCategory":1,"la1":30.2991,"la2":30.254,"lo1":-89.0895,"lo2":-89.0444,"dy":0.0017,"dx":0.0017,"nx":28,"ny":28,"refTime":"2025-06-17T03:00:00:Z","depth":0,"parameterNumber":3,"parameterNumberName":"V-component_of_WINDS"},"data":[0,0,0,0,0,0,0,0,0,0,0,0,0,0,0,0,0,0,0,0,0,0,0,0,0,0,0,0,0,0,0,0,0,0,0,0,0,0,0,0,0,0,0,0,0,0,0,0,0,0,0,0,0,0,0,0,0,0,6.0332,6.0334,0,6.0447,6.0448,6.0449,6.0408,6.0405,6.0402,6.04,6.051,6.0516,6.0521,0,0,0,0,0,0,0,0,0,0,0,0,0,6.0068,6.0073,6.0332,6.0334,6.0335,6.0446,6.0448,6.045,6.0408,6.0405,6.0402,6.0399,6.0509,6.0515,6.0521,0,0,0,0,0,0,0,0,0,0,0,0,0,6.0183,6.0075,6.0332,6.0328,6.0329,6.0446,6.0448,6.045,6.0409,6.0405,6.0401,6.0397,6.0507,6.0514,6.0522,6.0649,0,0,6.0547,6.055,0,0,0,0,0,0,0,0,6.0176,6.0192,6.0327,6.0328,6.033,6.0409,6.0395,6.0516,6.041,6.0378,6.04,6.0395,6.0479,6.0489,6.0519,6.0654,6.0658,6.0547,6.0552,6.0556,6.0558,0,0,0,0,0,0,0,6.0168,6.0187,6.0377,6.0329,6.0331,6.0317,6.0329,6.0418,6.0449,6.0381,6.0378,6.0392,6.0479,6.0511,6.0521,6.066,6.0547,6.0554,6.0559,6.0562,6.0898,6.0902,0,0,0,0,0,0,6.0161,6.0181,6.0374,6.0381,6.0242,6.0325,6.0339,6.0387,6.0448,6.0453,6.0395,6.039,6.05,6.0512,6.0525,6.0673,6.0556,6.0563,6.0568,6.0894,6.0899,6.0904,0,0,0,0,0,0,6.0156,6.0179,6.0369,6.028,6.0303,6.0334,6.0389,6.0392,6.0424,6.0459,6.0463,6.0423,6.0497,6.0514,6.0617,6.0677,6.0567,6.0574,6.0889,6.0896,6.0901,6.0973,0,0,0,0,0,0,6.0148,6.0177,6.0228,6.0282,6.0308,6.0463,6.0393,6.0397,6.0438,6.0432,6.0486,6.0492,6.0495,6.0606,6.0625,6.0686,6.058,6.0884,6.0892,6.0899,6.0966,6.0981,6.0994,0,0,0,0,0,6.0139,6.0243,6.0231,6.0254,6.0373,6.0466,6.0481,6.0485,6.0444,6.0493,6.0515,6.049,6.0667,6.0617,6.0638,6.0702,6.088,6.089,6.0899,6.0959,6.0978,6.0994,0,0,0,0,0,0,6.0194,6.025,6.0237,6.0363,6.041,6.0459,6.0522,6.0506,6.0565,6.0556,6.0557,6.0569,6.0675,6.0699,6.0642,6.0825,6.0767,6.0781,6.0805,6.0824,6.0838,6.0829,6.0587,0,0,0,0,0,6.0221,6.0295,6.0339,6.0445,6.047,6.0492,6.0533,6.0532,6.058,6.0599,6.0629,6.0675,6.074,6.0783,6.0846,6.0969,6.0978,6.1023,6.1037,6.1049,6.106,6.1122,6.1142,6.0934,6.0934,6.0934,0,0,6.0277,6.0317,6.0363,6.0457,6.0494,6.0566,6.0509,6.059,6.0642,6.0611,6.071,6.0733,6.0784,6.0897,6.0948,6.092,6.112,6.1061,6.107,6.1075,6.1134,6.1154,6.1171,6.094,6.0939,6.0938,0,0,6.0416,6.0456,6.0546,6.0584,6.0641,6.0654,6.0676,6.0727,6.0741,6.0841,6.0818,6.0879,6.0993,6.1029,6.1062,6.1211,6.1188,6.1231,6.1305,6.1366,6.1382,6.1396,6.1446,6.1464,6.1243,6.1243,6.1243,0,6.0478,6.059,6.0595,6.0676,6.0716,6.0692,6.0781,6.0817,6.089,6.0917,6.0885,6.1025,6.1058,6.1176,6.1212,6.1241,6.1262,6.1224,6.138,6.1394,6.1408,6.1455,6.1474,6.1247,6.1247,6.1246,6.1246,0,6.0661,6.0739,6.0805,6.0877,6.0924,6.1009,6.1023,6.107,6.1064,6.1079,6.1178,6.1217,6.1285,6.1313,6.1308,6.143,6.141,6.1379,6.1321,6.1432,6.1476,6.1494,6.1254,6.1252,6.1251,6.125,0,0,6.084,6.0911,6.0935,6.0966,6.1025,6.1083,6.1165,6.1233,6.1271,6.1321,6.1387,6.1483,6.1453,6.1491,6.1489,6.1543,6.1653,6.1505,6.1506,6.1528,6.1784,6.1806,6.1827,6.1639,6.1642,6.1645,6.1779,0,6.0981,6.1127,6.1132,6.1264,6.1333,6.1309,6.1379,6.1421,6.1437,6.1495,6.1511,6.1578,6.1536,6.1558,6.161,6.1629,6.1704,6.1619,6.1696,6.1699,6.1683,6.185,6.1874,6.1998,6.1797,6.18,6.1802,0,6.1166,6.1223,6.1362,6.1407,6.1436,6.15,6.156,6.1617,6.1662,6.1669,6.171,6.1699,6.1778,6.1719,6.1826,6.1768,6.1799,6.1813,6.1818,6.1823,6.1756,6.1857,6.2039,6.2056,6.1829,6.1827,6.1825,0,6.1278,6.1389,6.1485,6.1513,6.1569,6.1613,6.1638,6.168,6.1719,6.1771,6.1795,6.1855,6.1887,6.1932,6.1936,6.1893,6.2042,6.1984,6.2047,6.2047,6.2078,6.2076,6.2264,6.2103,6.2103,6.2102,6.2102,0,6.1434,6.1519,6.1536,6.1595,6.1688,6.1691,6.1782,6.1803,6.1839,6.1899,6.1882,6.1938,6.1941,6.1998,6.2001,6.2087,6.2102,6.2107,6.2107,6.2108,6.2107,6.2127,6.2117,6.2107,6.2106,6.2105,6.2105,0,6.1574,6.159,6.1693,6.1737,6.175,6.1816,6.1852,6.1906,6.192,6.1995,6.2013,6.2033,6.2098,6.2107,6.2183,6.2185,6.2287,6.2279,6.2272,6.227,6.2332,6.2325,6.2538,6.2564,6.2389,6.239,6.2392,0,6.1672,6.1737,6.1788,6.1827,6.1855,6.1919,6.1959,6.1962,6.2003,6.2057,6.2104,6.2168,6.2219,6.2323,6.2342,6.2399,6.239,6.2461,6.2398,6.2396,6.2387,6.2382,6.2387,6.2472,6.2474,6.2476,6.2477,0,6.1843,6.1846,6.1905,6.1965,6.2013,6.2061,6.2105,6.2138,6.2146,6.2193,6.226,6.2299,6.2376,6.2438,6.2493,6.2515,6.2496,6.2497,6.2514,6.2514,6.2506,6.2508,6.2302,6.2491,6.249,6.2489,6.2488,6.2488,6.1963,6.2017,6.2061,6.2125,6.2159,6.22,6.2253,6.2272,6.2329,6.2392,6.239,6.2463,6.2501,6.2574,6.26,6.2654,6.263,6.2656,6.2662,6.2668,6.2672,6.25,6.2664,6.2664,6.2664,6.2663,6.2663,0,6.2129,6.2155,6.2215,6.2277,6.2327,6.2307,6.2354,6.2396,6.2461,6.2499,6.2549,6.2624,6.2683,6.2706,6.2763,6.2801,6.2793,6.2816,6.2811,6.2816,6.2692,6.267,6.282,6.282,6.282,6.282,6.282,6.282,6.2222,6.2312,6.232,6.2426,6.245,6.2522,6.255,6.2586,6.2617,6.2701,6.2751,6.2766,6.2797,6.2855,6.2907,6.2912,6.2932,6.2957,6.2958,6.2841,6.2825,6.281,6.2789,6.2962,6.2962,6.3077,6.3078,6.3079]}]]